Lefor, ND

5:29 PM MDT on August 31, 2016 (GMT -0600)
Dickinson Municipal

Weather History for KDIK - November, 2012

Change the Weather History Date:

Saturday, November 24, 2012

  Actual Average Record
Temperature  
Mean Temperature 36 °F 25 °F  
Max Temperature 50 °F 35 °F 66 °F (1984)
Min Temperature 22 °F 15 °F -17 °F (1977)
Degree Days  
Heating Degree Days 29 40  
Month to date heating degree days 730 816  
Since 1 July heating degree days 1667 1827  
Cooling Degree Days 0 0  
Month to date cooling degree days 0 0  
Year to date cooling degree days 591 419  
Moisture  
Dew Point 24 °F    
Average Humidity 75    
Maximum Humidity 96    
Minimum Humidity 54    
Precipitation  
Precipitation T in 0.01 in 0.34 in (1930)
Month to date precipitation 0.22 0.48  
Year to date precipitation 10.15 15.47  
Sea Level Pressure  
Sea Level Pressure 29.93 in    
Wind  
Wind Speed 13 mph (West)    
Max Wind Speed 26 mph    
Max Gust Speed 35 mph    
Visibility 10 miles    
Events      
T = Trace of Precipitation, MM = Missing Value Source: NWS Daily Summary

Daily Weather History Graph

Daily Weather History Graph

Search for Another Location

Airport or City:

Trip Planner

Search our weather history database for the weather conditions in past years. The results will help you decide how hot, cold, wet, or windy it might be!

Date:

Astronomy

Nov. 24, 2012 Rise Set
Actual Time 7:07 AM MST 4:08 PM MST
Civil Twilight 6:33 AM MST 4:42 PM MST
Nautical Twilight 5:55 AM MST 5:19 PM MST
Astronomical Twilight 5:19 AM MST 5:56 PM MST
Moon 2:03 PM MST (11/24) 3:15 AM MST (11/24)
Length of Visible Light 10h 09m
Length of Day
9h 01m
Waxing Gibbous, 87% of the Moon is Illuminated
Nov 24
Waxing Gibbous
Nov 28
Full
Dec 6
Last Quarter
Dec 13
New
Dec 19
First Quarter

Hourly Weather History & Observations

Time (MST) Temp. Windchill Dew Point Humidity Pressure Visibility Wind Dir Wind Speed Gust Speed Precip Events Conditions
1:56 AM 24.1 °F 11.5 °F 15.1 °F 69% 30.03 in 10.0 mi South 15.0 mph - N/A   Clear
2:56 AM 23.0 °F 10.1 °F 15.1 °F 72% 29.99 in 10.0 mi South 15.0 mph - N/A   Clear
3:56 AM 23.0 °F 8.3 °F 15.1 °F 72% 29.98 in 10.0 mi South 19.6 mph - N/A   Clear
4:56 AM 21.9 °F 9.2 °F 15.1 °F 75% 29.95 in 10.0 mi South 13.8 mph - N/A   Clear
5:56 AM 23.0 °F 10.6 °F 16.0 °F 74% 29.92 in 10.0 mi South 13.8 mph - N/A   Clear
6:56 AM 23.0 °F 12.4 °F 16.0 °F 74% 29.90 in 10.0 mi SSW 10.4 mph - N/A   Clear
7:56 AM 32.0 °F 23.6 °F 19.9 °F 61% 29.87 in 10.0 mi WSW 10.4 mph - N/A   Overcast
8:56 AM 37.0 °F 27.7 °F 23.0 °F 57% 29.88 in 10.0 mi West 16.1 mph - N/A   Overcast
9:56 AM 39.9 °F 33.4 °F 28.9 °F 65% 29.86 in 10.0 mi West 10.4 mph - 0.00 in   Overcast
10:56 AM 46.9 °F - 34.0 °F 61% 29.84 in 10.0 mi West 12.7 mph - N/A   Mostly Cloudy
11:56 AM 48.9 °F - 33.1 °F 54% 29.82 in 10.0 mi WNW 20.7 mph 27.6 mph N/A   Clear
12:56 PM 48.9 °F - 32.0 °F 52% 29.83 in 10.0 mi WNW 25.3 mph 34.5 mph N/A   Clear
1:56 PM 45.0 °F 37.6 °F 32.0 °F 60% 29.85 in 10.0 mi WNW 17.3 mph - N/A   Partly Cloudy
2:56 PM 41.0 °F 33.1 °F 30.0 °F 65% 29.88 in 10.0 mi NW 15.0 mph - N/A   Partly Cloudy
3:56 PM 37.0 °F 30.4 °F 28.9 °F 73% 29.93 in 10.0 mi NW 9.2 mph - N/A   Clear
4:56 PM 33.1 °F 24.9 °F 27.0 °F 78% 29.96 in 10.0 mi NW 10.4 mph - N/A   Partly Cloudy
5:56 PM 30.9 °F 23.5 °F 27.0 °F 85% 29.97 in 10.0 mi WNW 8.1 mph - N/A   Partly Cloudy
6:56 PM 30.9 °F 21.7 °F 27.0 °F 85% 29.99 in 10.0 mi WNW 11.5 mph - N/A   Scattered Clouds
7:56 PM 26.1 °F 16.2 °F 24.1 °F 92% 29.99 in 10.0 mi WNW 10.4 mph - N/A   Clear
8:56 PM 25.0 °F 19.3 °F 23.0 °F 92% 30.01 in 10.0 mi WNW 4.6 mph - N/A   Clear
9:56 PM 24.1 °F 13.7 °F 21.9 °F 91% 30.01 in 10.0 mi WNW 10.4 mph - N/A   Clear
10:56 PM 23.0 °F 12.4 °F 21.0 °F 92% 30.00 in 10.0 mi NW 10.4 mph - N/A   Clear
11:17 PM 23.0 °F 13.1 °F 21.2 °F 93% 29.94 in 10.0 mi NW 9.2 mph - N/A   Scattered Clouds
11:56 PM 25.0 °F 20.7 °F 23.0 °F 92% 30.00 in 10.0 mi NNW 3.5 mph - N/A   Overcast